Regional Weather Roundup
Issued by NWS

Home | Current Version | Previous Version | Text Only | Print | Product List | Glossary On
Versions: 1 2 3 4 5 6 7 8 9 10 11 12 13 14 15 16 17 18 19 20 21 22 23 24 25 26 27 28 29 30 31 32 33 34 35 36 37 38 39 40 41 42 43 44 45 46 47 48 49 50
000
ASUS43 KTOP 271608
RWRKS

WEATHER ROUNDUP FOR KANSAS
NATIONAL WEATHER SERVICE GOODLAND KS
1000 AM CST SAT DEC 27 2014

NOTE:  "FAIR" INDICATES FEW OR NO CLOUDS BELOW 12,000 FEET WITH NO
SIGNIFICANT WEATHER AND/OR OBSTRUCTIONS TO VISIBILITY.

KSZ001>006-013>018-027>032-041>047-271700-
NORTHWEST KANSAS

CITY           SKY/WX    TMP DP  RH WIND       PRES   REMARKS
GOODLAND       SUNNY     14   9  80 W15       30.24R WCI  -1
HAYS           SUNNY     18   7  62 NW13      30.30R WCI   4
HILL CITY      SUNNY     16  10  77 W6        30.30R
RUSSELL        MOSUNNY   19  15  84 NW6       30.31R
$$

KSZ061>065-074>080-084>089-271700-
SOUTHWEST KANSAS

CITY           SKY/WX    TMP DP  RH WIND       PRES   REMARKS
DODGE CITY     MOSUNNY   20  14  77 NW12      30.31R WCI   8
ELKHART          N/A     18   8  65 NW6         N/A
GARDEN CITY    SUNNY     16  12  84 NW10      30.30R WCI   4
GREAT BEND     SUNNY     23  16  74 NW12      30.33R WCI  12
LIBERAL        MOSUNNY   19  12  73 NW12      30.33R WCI   7
PRATT          SUNNY     27  19  74 NW12      30.33R WCI  16
$$

KSZ066>073-081>083-090>101-271700-
SOUTHEAST KANSAS

CITY           SKY/WX    TMP DP  RH WIND       PRES   REMARKS
CHANUTE        CLOUDY    31  23  72 NW14      30.30R WCI  21
COFFEYVILLE    CLOUDY    32  25  75 N10       30.31R WCI  24
HUTCHINSON     SUNNY     27  16  63 NW13      30.34R WCI  16
MEDICINE LODGE   N/A     24  16  71 N13       30.33S WCI  12
NEWTON         MOSUNNY   27  14  59 N13       30.33R WCI  16
PARSONS        CLOUDY    33  26  75 NW12      30.30R WCI  24
WICHITA INTL   PTSUNNY   28  16  60 N17       30.32R WCI  16
WICHITA JABRA  MOSUNNY   27  17  66 NW15      30.31R WCI  15
WICHITA MCCONL MOSUNNY   28  18  67 N13       30.32R WCI  17
WINFIELD       CLOUDY    30  21  69 NW17      30.34R WCI  18
$$

KSZ007>012-019>026-033>040-048>060-102>105-271700-
NORTHEAST KANSAS

CITY           SKY/WX    TMP DP  RH WIND       PRES   REMARKS
CONCORDIA      SUNNY     21  16  81 NW8       30.30R
EMPORIA        PTSUNNY   25  20  81 NW15      30.28F WCI  13
LAWRENCE       CLOUDY    29  22  75 NW12      30.29R WCI  19
MANHATTAN      MOSUNNY   26  16  65 NW6       30.32R
MARYSVILLE     SUNNY     23  19  86 NW13      30.28R WCI  11
OLATHE IND     CLOUDY    29  24  82 W14       30.26F WCI  18
OLATHE EXE     CLOUDY    30  25  81 NW9       30.24F
SALINA         MOSUNNY   26  16  65 NW13      30.34R WCI  15
TOPEKA BILLARD CLOUDY    29  20  69 NW8       30.30R
TOPEKA FORBES  CLOUDY    28  20  71 NW13      30.28R WCI  17
$$


USA.gov is the U.S. government's official web portal to all federal, state and local government web resources and services.